Starlink 11307

operational
NORAD ID: 61210 Int'l Des: 2024-171 Owner: SPXS Country: US Constellation: starlink
LEOCIRCULAR

About Starlink 11307

Description loading...

Live Position

Loading 3D Globe...

Upcoming Passes

Altitude History

Altitude vs Time

uPlot chart will show altitude changes over time

Two-Line Element Set

1 61210U 24171L 25258.47044115 .00001499 00000-0 17221-4 0 9993
2 61210 53.1588 320.3857 0000972 81.2507 278.8621 15.69716689 56879
Epoch: Sep 15, 2025 • Age: 12 hours

Current Status

Altitude 375.2 km
Velocity 7.68 km/s
Sub-Earth Point -44.48°S, 73.12°W
Launch Date Sep 20, 2024
Age 0.9 years
Type internet

Technical Details

Classification Payload
Mass 960.00 kg
Dry Mass 910.00 kg
Total Mass 960.00 kg
Length 0.30 m
Diameter 4.10 m
Span 29.00 m
Shape Box + pan
Manufacturer SPXS
Bus Type Starlink V2MD
Phase Status In Orbit
Owner/State SPXS/US

Large Constellations

Loading constellations...